www.pogodaiklimat.ru

Погода и климат >> Архив погоды >> Россия >> Рязанская область >> Рязань


АРХИВ ПОГОДЫ в Рязани

Время (UTC), дата Ветер
(напр.,м/с)
 
Видим.   Явления Облачность Т
(С)
Тd
(С)
f
(%)
Тe
(С)
Тes
(С)
Комфортность P
(гПа)
Po
(гПа)
Тmin
(С)
Tmax
(С)
R
(мм)
R24
(мм)
S
(см)
12 16.08 СВ 1 10 км в посл. час ливневой дождь 10/10 600 м
[Sc diur, vesp]
+18.3 +17.8 97 +20 +20 прохладно 1011.9 993.7
15 16.08 С 2 4000 м слаб. ливневой дождь 10/10 300 м
[Cb cap]
+16.6 +16.2 97 +17 +17 прохладно 1012.1 993.7 +18.5 4
18 16.08 СВ 2 10 км 10/10 300 м
[Sc diur, vesp]
+16.3 +16.0 98 +16 +16 по сезону 1012.6 994.1
21 16.08 СВ 2 10 км 10/10 300 м
[Sc diur, vesp]
+16.3 +16.0 98 +16 +16 по сезону 1011.9 993.5
00 17.08 СВ 2 4000 м дымка 10/10 300 м
[Sc diur, vesp]
+15.9 +15.6 98 +16 +16 тепло 1011.7 993.2
03 17.08 СВ 2 1000 м слаб. морось 10/10 300 м
[St]
+16.1 +15.8 98 +16 +16 по сезону 1011.2 992.7 +15.9 0.0
06 17.08 СВ 2 1000 м дымка {ливн. осадки} 10/10 300 м
[St]
+17.2 +16.9 98 +18 +18 по сезону 1010.8 992.5
09 17.08 СВ 3 10 км 10/10 300 м
[Sc]
+18.5 +18.0 97 +20 +20 по сезону 1011.0 992.8
12 17.08 В 2 10 км слаб. ливневой дождь 10/10 300 м
[Cb cap]
+19.1 +18.7 98 +22 +22 комфорт 1011.1 992.9
15 17.08 В 1 4000 м ливневой дождь 10/10 300 м
[Cb cap]
+18.2 +17.9 98 +20 +20 тепло 1009.3 991.0 +19.5 13
18 17.08 ЮВ 2 10 км слаб. ливневой дождь 10/10 300 м
[Cb cap]
+18.0 +17.6 98 +19 +19 тепло 1009.1 990.9
21 17.08 ЮВ 2 10 км слаб. ливневой дождь 10/10 300 м
[Cb cap]
+18.3 +17.9 98 +19 +19 тепло 1008.1 989.9
00 18.08 В 1 4000 м дымка {ливн. осадки} 8/0
[Ac As Ci fib]
+17.5 +17.2 98 +19 +19 тепло 1008.1 989.8
03 18.08 Ю 2 10 км 9/8 300 м
[Sc Ac trans]
+17.3 +17.0 98 +18 +18 тепло 1008.1 989.8 +17.3 5
06 18.08 Ю 3 20 км 10/10 600 м
[Sc]
+19.3 +16.8 85 +21 +21 комфорт 1008.9 990.7 +17.3
09 18.08 Ю 3 20 км 10/10 600 м
[Sc]
+20.6 +16.8 79 +24 +24 комфорт 1010.0 991.8
12 18.08 ЮЗ 4 20 км 8/8 600 м
[Sc]
+21.7 +16.4 72 +26 +27 душно 1011.4 993.3
15 18.08 ЮЗ 1 20 км 6/6 600 м
[Sc diur, vesp]
+21.4 +16.9 76 +25 +26 комфорт 1012.2 994.1 +22.2
18 18.08 Ю 1 20 км 3/0
[Ac trans]
+15.3 +15.0 98 +16 +16 по сезону 1013.7 995.2
21 18.08 Ю 1 10 км 3/0
[Ci fib]
+14.3 +14.0 98 +15 +15 по сезону 1013.9 995.3
00 19.08 Ю 1 10 км 9/0
[Ac trans]
+15.6 +15.2 97 +16 +16 тепло 1014.4 995.9
03 19.08 Ю 2 10 км 9/9 600 м
[Sc]
+15.9 +15.5 97 +16 +16 по сезону 1015.2 996.7 +14.2
06 19.08 ЮЗ 2 10 км 10/10 600 м
[Sc]
+17.7 +16.2 91 +18 +18 тепло 1016.4 997.9
09 19.08 З 1 20 км 10/10 600 м
[Sc]
+19.8 +16.2 80 +23 +23 комфорт 1017.2 998.9
12 19.08 З 2 20 км 10/10 600 м
[Sc]
+19.7 +16.0 79 +22 +22 комфорт 1018.4 1000.0
15 19.08 З 1 20 км 10/10 600 м
[Sc]
+19.3 +16.3 83 +22 +22 комфорт 1019.4 1001.0 +20.9
18 19.08 штиль 0 10 км 10/5 600 м
[Sc Ac trans]
+17.8 +16.7 93 +18 +18 тепло 1020.5 1002.0
21 19.08 штиль 0 10 км 9/6 600 м
[Sc Ac trans]
+16.4 +16.1 98 +16 +16 тепло 1021.2 1002.6
00 20.08 штиль 0 4000 м дымка ясно +13.0 +12.7 98 +12 +12 по сезону 1021.7 1002.9
03 20.08 штиль 0 200 м туман ясно +12.5 +12.2 98 +12 +12 прохладно 1022.8 1003.9 +12.3
06 20.08 З 1 20 км в посл. час туман 3/3 300 м
[Sc diur, vesp]
+19.8 +17.1 84 +23 +28 комфорт 1023.3 1004.9
09 20.08 СЗ 1 20 км 4/4 600 м
[Cu hum]
+23.6 +15.0 59 +26 +35 жарко 1022.8 1004.6
12 20.08 С 1 20 км 6/6 600 м
[Cu hum]
+26.0 +13.9 47 +28 +32 жарко 1022.1 1004.1
15 20.08 штиль 0 20 км 3/3 600 м
[Cu hum]
+25.9 +13.9 47 +28 +29 жарко 1021.9 1003.9 +26.5
18 20.08 штиль 0 10 км 1/0
[Ci fib]
+17.5 +16.7 95 +17 +17 по сезону 1023.3 1004.8
21 20.08 ЮВ 1 4000 м ясно +16.2 +15.9 98 +17 +17 тепло 1023.2 1004.5
00 21.08 ЮВ 1 4000 м дымка ясно +15.2 +14.9 98 +16 +16 тепло 1024.1 1005.4
03 21.08 штиль 0 4000 м дымка 3/0
[Ac trans Ci fib]
+15.1 +14.8 98 +15 +15 по сезону 1024.8 1006.1 +14.7
06 21.08 СЗ 1 20 км 4/0
[Ci fib]
+22.7 +18.0 75 +28 +35 душно 1024.5 1006.3
09 21.08 З 2 20 км 3/1 1000 м
[Cu hum Ci fib]
+27.2 +15.5 49 +30 +40 душно 1023.8 1005.8
12 21.08 СВ 1 20 км 5/4 1000 м
[Cu hum Ci fib]
+28.4 +16.2 48 +32 +37 душно 1023.3 1005.4
15 21.08 С 1 20 км 3/1 1000 м
[Cu hum Ci fib]
+27.5 +16.3 50 +31 +32 душно 1022.4 1004.5 +28.5
18 21.08 штиль 0 10 км 3/0
[Ci fib]
+20.4 +19.2 93 +24 +24 комфорт 1023.0 1004.7
21 21.08 В 2 10 км ясно +21.0 +18.8 87 +26 +26 душно 1022.5 1004.2
00 22.08 ЮВ 1 10 км ясно +19.6 +18.4 93 +23 +23 комфорт 1022.1 1003.7
03 22.08 Ю 1 10 км 1/1 600 м
[Sc diur, vesp]
+17.4 +17.1 98 +18 +19 тепло 1021.9 1003.4 +17.0
06 22.08 Ю 3 20 км 1/0
[Ci fib]
+25.0 +17.9 65 +29 +34 душно 1021.2 1003.2
09 22.08 ЮЗ 2 20 км 4/4 1000 м
[Cu hum]
+28.4 +15.3 45 +31 +38 душно 1020.3 1002.5
12 22.08 ЮЗ 2 20 км 6/6 600 м
[Cu hum]
+28.4 +13.9 41 +30 +33 жарко 1019.6 1001.7
15 22.08 С 4 20 км 8/6 600 м
[Cu med, cong Ac trans]
+25.2 +17.8 64 +30 +30 душно 1019.8 1001.8 +29.9
18 22.08 С 3 20 км 4/0
[Ac trans]
+18.5 +13.3 72 +19 +19 тепло 1023.4 1004.9
21 22.08 С 2 20 км 9/0
[Ac trans]
+17.3 +13.7 79 +18 +18 тепло 1025.0 1006.4
00 23.08 С 2 20 км ясно +14.6 +13.6 94 +14 +14 тепло 1026.2 1007.4
03 23.08 С 2 20 км 3/0
[Ci fib]
+13.3 +12.6 96 +12 +13 по сезону 1027.4 1008.5 +13.1
06 23.08 СВ 2 20 км 8/0
[Cc]
+17.7 +12.9 73 +18 +23 тепло 1028.1 1009.5
09 23.08 СВ 1 20 км 9/1 600 м
[Cu hum Cc]
+21.8 +8.5 42 +23 +33 комфорт 1027.9 1009.5

 

Местоположение метеостанции Рязань (Рязанская область, Россия): широта 54.63 долгота 39.70 высота над уровнем моря 157 м.

В архиве по умолчанию представлена погода в Рязани за последнюю неделю. Архивные данные за месяц целиком и за предыдущие месяцы, начиная с января 2011 года, Вы можете получить, выбрав интересующий диапазон дат из раскрывающегося списка и нажав кнопку "Ввод!".


*Определитесь, кто Вы:
робот инопланетянин человек

Внимание! Время в таблицах - всемирное. Для получения местного времени необходимо прибавить поправку, которая равна 3 ч.

Смотрите также архив погоды в соседних городах и на ближайших метеорологических станциях:

Погода в Рыбном (Рязанская область, Россия) (13 км)
Погода в Старожилово (Рязанская область, Россия) (43 км)
Погода в Зарайске (Московская область, Россия) (57 км)
Погода в Луховицах (Московская область, Россия) (58 км)
Погода в Михайлове (Рязанская область, Россия) (62 км)
Погода в Серебряных Прудах (Московская область, Россия) (66 км)
Погода в Туме (Рязанская область, Россия) (78 км)
Погода в Коломне (Московская область, Россия) (83 км)
Погода в Шилово (Рязанская область, Россия) (85 км)
Погода в Егорьевске (Московская область, Россия) (94 км)

Пояснения к столбцам:

Ветер - указаны скорость ветра в м/с - средняя за 10 мин, порывы в срок и между сроками (в фигурных скобках) и направление, откуда дует ветер: С - северный, СВ - северо-восточный, В - восточный, ЮВ - юго-восточный, Ю - южный, ЮЗ - юго-западный, З - западный, СЗ - северо-западный.
Видимость - горизонтальная дальность видимости в метрах или километрах. При видимости от 1 до 10 км при отсутствии осадков обычно наблюдается дымка, при ухудшении видимости до 1 км и менее - туман. В сухую погоду видимость может ухудшаться дымом, пылью или мглою.
Явления - указаны атмосферные явления, наблюдавшиеся в срок или в последний час перед сроком; фигурными скобками обозначены явления, наблюдавшиеся между сроками (за 1-3 часа до срока); квадратными скобками обозначены град или гололедные отложения с указанием их диаметра в мм.
Облачность - указаны через наклонную черту общая и нижняя облачность в баллах и высота нижней границы облаков в метрах; квадратными скобками обозначены формы облаков: Ci - перистые, Cs - перисто-слоистые, Cc - перисто-кучевые, Ac - высококучевые, As - высокослоистые, Sc - слоисто-кучевые, Ns - слоисто-дождевые, Cu - кучевые, Cb - кучево-дождевые. Подробнее классификацию облаков см. в Атласе облаков (PDF).
T - Температура воздуха - температура, измеренная на высоте 2 м над землей.
Td - Температура точки росы - температура, при понижении до которой содержащийся в воздухе водяной пар достигнет насыщения.
f - Относительная влажность воздуха - влажноcть воздуха, измеренная на высоте 2 м над землей.
Te - Эффективная температура - температура, которую ощущает одетый по сезону человек в тени. Характеристика душности погоды. При расчете учитывается влияние влажности воздуха и скорости ветра на теплоощущения человека.
Tes - Эффективная температура на солнце - температура, которую ощущает человек, с поправкой на солнечный нагрев. Характеристика знойности погоды. Зависит от высоты солнца над горизонтом, облачности и скорости ветра. Ночью, в пасмурную погоду, а также при ветре 12 м/с и более поправка равна нулю.
P - Атмосферное давление - приведенное к уровню моря атмосферное давление.
Po - Атмосферное давление - измеренное на уровне метеостанции атмосферное давление.
Tmin - Минимальная температура - минимум температуры воздуха на высоте 2 м над землей.
Tmax - Максимальная температура - максимум температуры воздуха на высоте 2 м над землей.
R - Количество осадков - Количество выпавших осадков за период времени, мм. При наведении курсора мыши на число - период времени, за который выпало указанное количество осадков.
R24 - Количество осадков - Количество выпавших осадков за 24 часа, мм.
S - Снежный покров - Высота снежного покрова, см. При наведении курсора мыши на число - состояние снежного покрова и степень покрытия местности в баллах.